Dirección General De Aeronáutica Civil

Dirección Meteorológica de Chile - Servicios Climáticos

Informe General de Control de Calidad de la Estación

Listado de niveles de control de calidad para algunos parámetros
Estación Punta Tortuga faro (290005)
Fecha de Revisión de los datos :

Elementos

Registros Niveles de Control Total
Nivel 0 Nivel 1 Nivel 2 Nivel 3 Errores Porcentaje
01 Temperatura del Aire Seco 49.708 0 . 50 0.10 % 0 . 0 . 50 0.10 %
02 Temperatura de Rocío 38.669 0 . 0 . 0 . 0 . 0 0.00 %
03 Humedad Relativa del Aire 38.616 0 . 0 . 0 . 0 . 0 0.00 %
04 Temperatura Máxima PM 9.682 0 . 0 . 75 0.77 % 0 . 75 0.77 %
05 Temperatura Mínima AM 9.983 0 . 0 . 112 1.12 % 0 . 112 1.12 %
06 Viento a 10 m. de Altura 49.693 0 . 1 0.00 % 0 . 0 . 1 0.00 %
07 Agua Caida, Acumulada 6 Horas 39.283 0 . 66 0.17 % 0 . 0 . 66 0.17 %
08 Presión Atm. a Nivel de Estación (QFE) 38.716 0 . 2 0.01 % 0 . 0 . 2 0.01 %
09 Presión Atm. a Nivel Medio del Mar (QFF) 38.721 0 . 0 . 0 . 0 . 0 0.00 %
10 Tiempo Pasado Sinóptico 23.037 0 . 0 . 0 . 0 . 0 0.00 %
11 Tiempo Presente Sinóptico 50.754 0 . 7 0.01 % 0 . 0 . 7 0.01 %

Totales

386.862 . 0.0000 % . 0.0326 % . 0.0483 % . 0.0000 % 313 0.0809 %

Detalle de Errores Recientes

Fecha del Dato Descripción Información Error Fecha Ingreso
2024-02-16 12:00:00 rrr = 0.1 y WW = 2 w1=2 w2=2 0.1 2024-02-16 12:07:00
2024-02-02 09:00:00 ff < 19kt y ((ww >= 31 y ww <= 35) o (ww == 37 o ww == 39 o ww >= 98))) 2024-02-02 10:32:00
Total de Errores Recientes 2

Detalle de Errores Encontrados

Nivel Fecha del Dato Descripción Información Error Fecha Ingreso
1 1976-05-22 06:00:00 Ts debe ser mayor o igual a Td Ts=11.8 - Td=25.2 2012-12-04 13:13:00
1 1976-06-25 12:00:00 Ts debe ser mayor o igual a Td Ts=8.6 - Td=10.8 2012-12-04 13:13:00
1 1976-07-12 12:00:00 Ts debe ser mayor o igual a Td Ts=6.4 - Td=20.4 2012-12-04 13:13:00
1 1976-08-11 12:00:00 Ts debe ser mayor o igual a Td Ts=9.2 - Td=22.4 2012-12-04 13:13:00
1 1976-10-05 12:00:00 Ts debe ser mayor o igual a Td Ts=13.4 - Td=13.7 2012-12-04 13:13:00
1 1977-01-05 18:00:00 Ts debe ser mayor o igual a Td Ts=10.2 - Td=22.2 2012-12-04 13:13:00
1 1977-03-21 00:00:00 Ts debe ser mayor o igual a Td Ts=14.4 - Td=19.0 2012-12-04 13:14:00
1 1977-07-04 12:00:00 Ts debe ser mayor o igual a Td Ts=9.4 - Td=23.0 2012-12-04 13:14:00
1 1977-07-09 06:00:00 Ts debe ser mayor o igual a Td Ts=10.0 - Td=10.7 2012-12-04 13:14:00
1 1977-09-17 00:00:00 Ts debe ser mayor o igual a Td Ts=13.8 - Td=14.5 2012-12-04 13:14:00
1 1977-11-27 18:00:00 Ts debe ser mayor o igual a Td Ts=18.2 - Td=22.9 2012-12-04 13:14:00
1 1977-12-05 18:00:00 Ts debe ser mayor o igual a Td Ts=14.6 - Td=17.7 2012-12-04 13:14:00
1 1978-02-04 12:00:00 Ts debe ser mayor o igual a Td Ts=16.6 - Td=21.5 2012-12-04 13:15:00
1 1978-02-06 12:00:00 Ts debe ser mayor o igual a Td Ts=16.2 - Td=21.0 2012-12-04 13:15:00
1 1978-02-11 06:00:00 Ts debe ser mayor o igual a Td Ts=15.6 - Td=15.9 2012-12-04 13:15:00
1 1978-03-10 00:00:00 Ts debe ser mayor o igual a Td Ts=12.2 - Td=20.0 2012-12-04 13:15:00
1 1978-04-10 12:00:00 Ts debe ser mayor o igual a Td Ts=14.8 - Td=16.4 2012-12-04 13:15:00
1 1978-04-15 06:00:00 Ts debe ser mayor o igual a Td Ts=14.2 - Td=16.4 2012-12-04 13:15:00
1 1978-05-18 06:00:00 Ts debe ser mayor o igual a Td Ts=13.0 - Td=13.7 2012-12-04 13:15:00
1 1978-05-23 00:00:00 Ts debe ser mayor o igual a Td Ts=3.0 - Td=17.4 2012-12-04 13:15:00
1 1978-06-10 06:00:00 Ts debe ser mayor o igual a Td Ts=13.2 - Td=22.8 2012-12-04 13:15:00
1 1978-06-23 18:00:00 Ts debe ser mayor o igual a Td Ts=5.5 - Td=18.9 2012-12-04 13:15:00
1 1978-06-30 12:00:00 Ts debe ser mayor o igual a Td Ts=10.0 - Td=10.4 2012-12-04 13:15:00
1 1978-07-06 06:00:00 Ts debe ser mayor o igual a Td Ts=12.1 - Td=12.9 2012-12-04 13:15:00
1 1978-07-28 12:00:00 Ts debe ser mayor o igual a Td Ts=9.6 - Td=23.5 2012-12-04 13:15:00
1 1978-08-21 00:00:00 Ts debe ser mayor o igual a Td Ts=11.7 - Td=15.5 2012-12-04 13:15:00
1 1978-10-07 06:00:00 Ts debe ser mayor o igual a Td Ts=13.6 - Td=14.3 2012-12-04 13:16:00
1 1978-11-13 12:00:00 Ts debe ser mayor o igual a Td Ts=15.2 - Td=16.2 2012-12-04 13:16:00
1 1979-03-08 18:00:00 Ts debe ser mayor o igual a Td Ts=14.0 - Td=18.6 2012-12-04 13:16:00
1 1979-03-17 00:00:00 Ts debe ser mayor o igual a Td Ts=16.0 - Td=20.4 2012-12-04 13:16:00
1 1979-08-16 18:00:00 Ts debe ser mayor o igual a Td Ts=15.8 - Td=20.0 2012-12-04 13:17:00
1 1982-01-08 06:00:00 Ts debe ser mayor o igual a Td Ts=16.4 - Td=19.1 2012-12-04 13:20:00
1 1982-01-14 06:00:00 Ts debe ser mayor o igual a Td Ts=16.2 - Td=19.5 2012-12-04 13:20:00
1 1982-08-05 06:00:00 Ts debe ser mayor o igual a Td Ts=12.0 - Td=12.3 2012-12-04 13:21:00
1 1982-08-10 06:00:00 Ts debe ser mayor o igual a Td Ts=10.4 - Td=11.8 2012-12-04 13:21:00
1 1982-10-11 06:00:00 Ts debe ser mayor o igual a Td Ts=14.0 - Td=16.2 2012-12-04 13:21:00
1 1982-11-25 06:00:00 Ts debe ser mayor o igual a Td Ts=14.2 - Td=21.5 2012-12-04 13:21:00
1 1983-05-31 00:00:00 Ts debe ser mayor o igual a Td Ts=13.2 - Td=19.6 2012-12-04 13:22:00
1 1985-12-08 18:00:00 Ts debe ser mayor o igual a Td Ts=14.6 - Td=17.0 2012-12-04 13:22:00
1 1985-12-12 18:00:00 Ts debe ser mayor o igual a Td Ts=14.0 - Td=17.6 2012-12-04 13:22:00
1 1985-12-20 18:00:00 Ts debe ser mayor o igual a Td Ts=14.2 - Td=17.6 2012-12-04 13:22:00
1 1988-01-13 06:00:00 Ts debe ser mayor o igual a Td Ts=16.4 - Td=21.4 2012-12-04 13:25:00
1 1988-05-25 00:00:00 Ts debe ser mayor o igual a Td Ts=12.6 - Td=13.9 2012-12-04 13:25:00
1 1988-07-18 06:00:00 Ts debe ser mayor o igual a Td Ts=8.2 - Td=9.7 2012-12-04 13:25:00
1 1988-07-21 12:00:00 Ts debe ser mayor o igual a Td Ts=8.8 - Td=10.3 2012-12-04 13:25:00
1 1988-09-05 06:00:00 Ts debe ser mayor o igual a Td Ts=10.5 - Td=12.1 2012-12-04 13:26:00
1 1988-09-05 12:00:00 Ts debe ser mayor o igual a Td Ts=9.5 - Td=11.1 2012-12-04 13:26:00
1 1988-09-05 18:00:00 Ts debe ser mayor o igual a Td Ts=11.7 - Td=15.1 2012-12-04 13:26:00
1 1988-09-06 00:00:00 Ts debe ser mayor o igual a Td Ts=10.4 - Td=13.0 2012-12-04 13:26:00
1 1988-10-28 18:00:00 Ts debe ser mayor o igual a Td Ts=15.6 - Td=25.8 2012-12-04 13:26:00
1 1977-12-17 12:00:00 ts > 12.0 y ( (ww >= 68 y ww <= 69) o (ww >= 83 y ww <= 84)) 69 2012-12-04 16:10:00
1 1983-02-08 00:00:00 ts > 5.0 y ((ww >= 70 y ww <= 79) || (ww >= 85 y ww <= 88))) 85 2012-12-04 16:16:00
1 1983-06-17 00:00:00 ts > 3.0 y ( (ww >= 48 y ww <= 49) o (ww >= 56 y ww <= 57) o (ww >=66 y ww <= 67)) 66 2012-12-04 16:17:00
1 1988-09-03 06:00:00 ts > 5.0 y ((ww >= 70 y ww <= 79) || (ww >= 85 y ww <= 88))) 85 2012-12-04 16:24:00
1 2023-06-17 18:00:00 (ts - td > 5.0) y ((ww >= 40 y ww <= 49)) 45 2023-06-17 18:09:00
1 2023-06-17 21:00:00 (ts - td > 5.0) y ((ww >= 40 y ww <= 49)) 45 2023-06-17 20:57:00
1 2023-06-30 15:00:00 (ts - td > 5.0) y ((ww >= 40 y ww <= 49)) 44 2023-06-30 14:54:00
1 2016-02-05 06:00:00 rrr = trazas y WW = 1 w1=2 w2=1 0.0 2016-02-05 07:29:00
1 2016-02-11 06:00:00 rrr = trazas y WW = 2 w1=0 w2=0 0.0 2016-02-11 05:54:00
1 2016-03-18 12:00:00 rrr = trazas y WW = 3 w1=2 w2=0 0.0 2016-03-18 12:05:00
1 2016-03-20 00:00:00 rrr = trazas y WW = 2 w1=0 w2=0 0.0 2016-03-19 23:59:00
1 2016-03-26 12:00:00 rrr = trazas y WW = 2 w1=2 w2=2 0.0 2016-03-26 12:04:00
1 2016-04-08 12:00:00 rrr = trazas y WW = 3 w1=2 w2=2 0.0 2016-04-08 12:40:00
1 2016-04-18 12:00:00 rrr = trazas y WW = 2 w1=2 w2=2 0.0 2016-04-18 11:56:00
1 2016-05-07 12:00:00 rrr = trazas y WW = 2 w1=2 w2=2 0.0 2016-05-07 11:48:00
1 2016-05-28 12:00:00 rrr = trazas y WW = 2 w1=2 w2=2 0.0 2016-05-28 12:00:00
1 2016-07-04 06:00:00 rrr = s/p y WW = 2 w1=6 w2=2 0.0 2016-07-04 05:53:00
1 2016-07-04 12:00:00 rrr = 0.3 y WW = 1 w1=2 w2=2 0.3 2016-07-04 12:02:00
1 2016-07-11 12:00:00 rrr = s/p y WW = 20 w1=2 w2=2 0.0 2016-07-11 12:08:00
1 2016-07-20 06:00:00 rrr = trazas y WW = 1 w1=1 w2=0 0.0 2016-07-20 05:51:00
1 2016-09-26 12:00:00 rrr = s/p y WW = 23 w1=2 w2=2 0.0 2016-09-26 11:50:00
1 2016-10-15 06:00:00 rrr = s/p y WW = 2 w1=5 w2=2 0.0 2016-10-15 05:46:00
1 2016-10-16 12:00:00 rrr = trazas y WW = 2 w1=2 w2=2 0.0 2016-10-16 11:58:00
1 2016-10-24 12:00:00 rrr = trazas y WW = 2 w1=0 w2=0 0.0 2016-10-24 13:09:00
1 2017-02-26 18:00:00 rrr = trazas y WW = 2 w1=0 w2=0 0.0 2017-02-26 17:54:00
1 2017-03-16 00:00:00 rrr = trazas y WW = 2 w1=0 w2=0 0.0 2017-03-15 23:59:00
1 2017-04-15 00:00:00 rrr = trazas y WW = 2 w1=0 w2=0 0.0 2017-04-15 00:49:00
1 2017-04-30 00:00:00 rrr = trazas y WW = 2 w1=2 w2=2 0.0 2017-04-30 02:42:00
1 2017-05-13 06:00:00 rrr = s/p y WW = 1 w1=8 w2=6 0.0 2017-05-13 06:02:00
1 2017-05-19 00:00:00 rrr = s/p y WW = 2 w1=6 w2=0 0.0 2017-05-19 00:11:00
1 2017-07-04 12:00:00 rrr = 0.6 y WW = 2 w1=2 w2=2 0.6 2017-07-04 12:05:00
1 2017-08-11 12:00:00 rrr = s/p y WW = 1 w1=5 w2=2 0.0 2017-08-16 12:25:00
1 2018-02-06 12:00:00 rrr = s/p y WW = 5 w1=5 w2=5 0.0 2018-02-06 11:51:00
1 2018-05-12 18:00:00 rrr = trazas y WW = 2 w1=2 w2=2 0.0 2018-05-12 18:19:00
1 2018-06-10 12:00:00 rrr = s/p y WW = 61 w1=5 w2=5 0.0 2018-06-10 12:10:00
1 2018-06-10 18:00:00 rrr = s/p y WW = 1 w1=6 w2=1 0.0 2018-06-11 12:15:00
1 2018-06-11 18:00:00 rrr = s/p y WW = 2 w1=6 w2=0 0.0 2018-06-11 18:48:00
1 2018-07-05 06:00:00 rrr = s/p y WW = 60 w1=6 w2=6 0.0 2018-07-05 06:19:00
1 2018-09-21 00:00:00 rrr = trazas y WW = 2 w1=0 w2=0 0.0 2018-09-21 00:05:00
1 2019-03-12 18:00:00 rrr = trazas y WW = 1 w1=0 w2=0 0.0 2019-03-12 18:06:00
1 2019-06-11 18:00:00 rrr = s/p y WW = 20 w1=2 w2=0 0.0 2019-06-11 19:07:00
1 2019-06-18 00:00:00 rrr = 5.0 y WW = 1 w1=1 w2=0 5.0 2019-06-17 23:46:00
1 2019-06-26 12:00:00 rrr = trazas y WW = 2 w1=0 w2=0 0.0 2019-06-26 12:13:00
1 2019-12-09 18:00:00 rrr = trazas y WW = 1 w1=1 w2=0 0.0 2019-12-09 17:49:00
1 2019-12-15 18:00:00 rrr = trazas y WW = 2 w1=0 w2=0 0.0 2019-12-15 17:56:00
1 2020-01-27 12:00:00 rrr = 0.1 y WW = 2 w1=2 w2=2 0.1 2020-01-27 12:02:00
1 2020-02-07 18:00:00 rrr = 0.1 y WW = 2 w1=1 w2=0 0.1 2020-02-07 18:07:00
1 2020-03-03 18:00:00 rrr = 1.6 y WW = 2 w1=2 w2=2 1.6 2020-03-03 17:53:00
1 2020-03-16 18:00:00 rrr = s/p y WW = 2 w1=5 w2=2 0.0 2020-03-16 17:47:00
1 2020-04-17 12:00:00 rrr = trazas y WW = 2 w1=0 w2=0 0.0 2020-04-17 11:52:00
1 2020-05-04 06:00:00 rrr = trazas y WW = 2 w1=2 w2=2 0.0 2020-05-04 05:59:00
1 2020-06-06 18:00:00 rrr = trazas y WW = 3 w1=0 w2=0 0.0 2020-06-06 18:11:00
1 2020-07-20 06:00:00 rrr = trazas y WW = 2 w1=0 w2=0 0.0 2020-07-20 09:04:00
1 2020-08-26 00:00:00 rrr = 0.2 y WW = 1 w1=2 w2=2 0.2 2020-08-26 03:14:00
1 2020-10-30 00:00:00 rrr = trazas y WW = 2 w1=0 w2=0 0.0 2020-10-30 00:53:00
1 2020-11-21 00:00:00 rrr = trazas y WW = 1 w1=1 w2=0 0.0 2020-11-21 03:15:00
1 2020-12-04 00:00:00 rrr = trazas y WW = 2 w1=0 w2=0 0.0 2020-12-03 23:59:00
1 2020-12-27 06:00:00 rrr = trazas y WW = 2 w1=0 w2=0 0.0 2020-12-27 06:04:00
1 2021-03-18 18:00:00 rrr = trazas y WW = 1 w1=0 w2=0 0.0 2021-03-18 18:24:00
1 2021-04-20 12:00:00 rrr = s/p y WW = 2 w1=5 w2=2 0.0 2021-04-20 12:02:00
1 2021-05-19 12:00:00 rrr = 0.1 y WW = 2 w1=2 w2=2 0.1 2021-05-19 12:06:00
1 2021-06-06 00:00:00 rrr = trazas y WW = 2 w1=2 w2=2 0.0 2021-06-05 23:53:00
1 2021-06-24 00:00:00 rrr = 0.7 y WW = 3 w1=2 w2=2 0.7 2021-06-24 00:13:00
1 2021-07-23 18:00:00 rrr = s/p y WW = 10 w1=5 w2=2 0.0 2021-07-23 18:04:00
1 2021-07-24 06:00:00 rrr = s/p y WW = 50 w1=5 w2=2 0.0 2021-07-24 06:10:00
1 2021-07-24 12:00:00 rrr = s/p y WW = 2 w1=5 w2=2 0.0 2021-07-24 13:32:00
1 2021-09-25 00:00:00 rrr = trazas y WW = 2 w1=2 w2=2 0.0 2021-09-25 03:05:00
1 2021-11-09 18:00:00 rrr = trazas y WW = 2 w1=2 w2=2 0.0 2021-11-09 20:45:00
1 2021-12-06 12:00:00 rrr = trazas y WW = 2 w1=2 w2=2 0.0 2021-12-06 12:18:00
1 2022-01-24 18:00:00 rrr = trazas y WW = 2 w1=0 w2=0 0.0 2022-01-24 18:16:00
1 2022-04-03 06:00:00 rrr = 2.0 y WW = 0 w1=0 w2=0 2.0 2022-04-03 09:09:00
1 2023-02-06 06:00:00 rrr = trazas y WW = 2 w1=0 w2=0 0.0 2023-02-06 07:40:00
1 2024-02-16 12:00:00 rrr = 0.1 y WW = 2 w1=2 w2=2 0.1 2024-02-16 12:07:00
1 2022-09-25 09:00:00 qfe debe ser menor o igual a qff 1016.6 - 1013.5 2022-09-25 12:14:00
1 2022-09-25 12:00:00 qfe debe ser menor o igual a qff 1017.0 - 1013.9 2022-09-25 12:13:00
1 2024-02-02 09:00:00 ff < 19kt y ((ww >= 31 y ww <= 35) o (ww == 37 o ww == 39 o ww >= 98))) 2024-02-02 10:32:00
Errores del Nivel 126
Nivel Fecha del Dato Descripción Información Error Fecha Ingreso
2 1969-01-08 00:00:00 Temperatura 18.4 del 08-01-1969 00:00, Mayor que la Máxima 10.6 08-01-1969 00:00 18.4 -- 10.6 2012-12-04 13:26:00
2 1969-01-20 00:00:00 Temperatura 21.8 del 19-01-1969 18:00, Mayor que la Máxima 15.7 20-01-1969 00:00 21.8 -- 15.7 2012-12-04 13:26:00
2 1969-02-03 00:00:00 Temperatura 21.4 del 02-02-1969 18:00, Mayor que la Máxima 20.8 03-02-1969 00:00 21.4 -- 20.8 2012-12-04 13:26:00
2 1969-07-02 00:00:00 Temperatura 18.4 del 01-07-1969 18:00, Mayor que la Máxima 15.9 02-07-1969 00:00 18.4 -- 15.9 2012-12-04 13:26:00
2 1969-07-05 00:00:00 Temperatura 14.6 del 04-07-1969 18:00, Mayor que la Máxima 13.5 05-07-1969 00:00 14.6 -- 13.5 2012-12-04 13:26:00
2 1969-09-05 00:00:00 Temperatura 16.0 del 04-09-1969 18:00, Mayor que la Máxima 15.0 05-09-1969 00:00 16.0 -- 15.0 2012-12-04 13:26:00
2 1969-10-02 00:00:00 Temperatura 14.0 del 01-10-1969 18:00, Mayor que la Máxima 11.0 02-10-1969 00:00 14.0 -- 11.0 2012-12-04 13:27:00
2 1969-12-24 00:00:00 Temperatura 18.4 del 23-12-1969 18:00, Mayor que la Máxima 18.2 24-12-1969 00:00 18.4 -- 18.2 2012-12-04 13:27:00
2 1971-02-03 00:00:00 Temperatura 20.3 del 02-02-1971 18:00, Mayor que la Máxima 19.0 03-02-1971 00:00 20.3 -- 19.0 2012-12-04 13:27:00
2 1971-04-07 00:00:00 Temperatura 19.3 del 06-04-1971 18:00, Mayor que la Máxima 19.2 07-04-1971 00:00 19.3 -- 19.2 2012-12-04 13:27:00
2 1971-05-15 00:00:00 Temperatura 16.3 del 14-05-1971 18:00, Mayor que la Máxima 16.0 15-05-1971 00:00 16.3 -- 16.0 2012-12-04 13:27:00
2 1971-12-26 00:00:00 Temperatura 20.4 del 25-12-1971 18:00, Mayor que la Máxima 20.0 26-12-1971 00:00 20.4 -- 20.0 2012-12-04 13:27:00
2 1972-07-06 00:00:00 Temperatura 15.7 del 05-07-1972 18:00, Mayor que la Máxima 15.3 06-07-1972 00:00 15.7 -- 15.3 2012-12-04 13:27:00
2 1972-07-08 00:00:00 Temperatura 13.6 del 07-07-1972 18:00, Mayor que la Máxima 12.5 08-07-1972 00:00 13.6 -- 12.5 2012-12-04 13:27:00
2 1972-07-12 00:00:00 Temperatura 12.8 del 11-07-1972 18:00, Mayor que la Máxima 12.6 12-07-1972 00:00 12.8 -- 12.6 2012-12-04 13:27:00
2 1973-02-09 00:00:00 Temperatura 22.2 del 08-02-1973 18:00, Mayor que la Máxima 21.8 09-02-1973 00:00 22.2 -- 21.8 2012-12-04 13:27:00
2 1973-03-23 00:00:00 Temperatura 17.4 del 22-03-1973 18:00, Mayor que la Máxima 17.0 23-03-1973 00:00 17.4 -- 17.0 2012-12-04 13:27:00
2 1973-04-29 00:00:00 Temperatura 16.4 del 28-04-1973 18:00, Mayor que la Máxima 14.0 29-04-1973 00:00 16.4 -- 14.0 2012-12-04 13:27:00
2 1973-06-06 00:00:00 Temperatura 15.6 del 05-06-1973 18:00, Mayor que la Máxima 15.2 06-06-1973 00:00 15.6 -- 15.2 2012-12-04 13:27:00
2 1973-08-03 00:00:00 Temperatura 13.6 del 02-08-1973 18:00, Mayor que la Máxima 13.2 03-08-1973 00:00 13.6 -- 13.2 2012-12-04 13:27:00
2 1973-09-24 00:00:00 Temperatura 13.8 del 23-09-1973 18:00, Mayor que la Máxima 11.8 24-09-1973 00:00 13.8 -- 11.8 2012-12-04 13:28:00
2 1973-11-15 00:00:00 Temperatura 16.0 del 14-11-1973 18:00, Mayor que la Máxima 15.4 15-11-1973 00:00 16.0 -- 15.4 2012-12-04 13:28:00
2 1974-02-11 00:00:00 Temperatura 18.6 del 10-02-1974 18:00, Mayor que la Máxima 14.4 11-02-1974 00:00 18.6 -- 14.4 2012-12-04 13:28:00
2 1974-07-17 00:00:00 Temperatura 14.2 del 16-07-1974 18:00, Mayor que la Máxima 14.0 17-07-1974 00:00 14.2 -- 14.0 2012-12-04 13:28:00
2 1974-09-15 00:00:00 Temperatura 15.2 del 14-09-1974 18:00, Mayor que la Máxima 15.0 15-09-1974 00:00 15.2 -- 15.0 2012-12-04 13:28:00
2 1975-06-03 00:00:00 Temperatura 15.0 del 02-06-1975 18:00, Mayor que la Máxima 14.8 03-06-1975 00:00 15.0 -- 14.8 2012-12-04 13:28:00
2 1976-03-22 00:00:00 Temperatura 17.6 del 21-03-1976 18:00, Mayor que la Máxima 17.4 22-03-1976 00:00 17.6 -- 17.4 2012-12-04 13:28:00
2 1976-03-26 00:00:00 Temperatura 15.6 del 25-03-1976 18:00, Mayor que la Máxima 15.2 26-03-1976 00:00 15.6 -- 15.2 2012-12-04 13:28:00
2 1976-06-27 00:00:00 Temperatura 14.0 del 26-06-1976 18:00, Mayor que la Máxima 13.2 27-06-1976 00:00 14.0 -- 13.2 2012-12-04 13:28:00
2 1976-08-01 00:00:00 Temperatura 13.9 del 01-08-1976 00:00, Mayor que la Máxima 13.8 01-08-1976 00:00 13.9 -- 13.8 2012-12-04 13:28:00
2 1976-08-03 00:00:00 Temperatura 15.0 del 02-08-1976 18:00, Mayor que la Máxima 14.8 03-08-1976 00:00 15.0 -- 14.8 2012-12-04 13:28:00
2 1978-01-27 00:00:00 Temperatura 18.0 del 26-01-1978 18:00, Mayor que la Máxima 14.0 27-01-1978 00:00 18.0 -- 14.0 2012-12-04 13:29:00
2 1978-03-22 00:00:00 Temperatura 18.2 del 21-03-1978 18:00, Mayor que la Máxima 18.1 22-03-1978 00:00 18.2 -- 18.1 2012-12-04 13:29:00
2 1979-03-14 00:00:00 Temperatura 19.4 del 13-03-1979 18:00, Mayor que la Máxima 19.2 14-03-1979 00:00 19.4 -- 19.2 2012-12-04 13:29:00
2 1981-01-06 00:00:00 Temperatura 19.2 del 05-01-1981 18:00, Mayor que la Máxima 18.8 06-01-1981 00:00 19.2 -- 18.8 2012-12-04 13:30:00
2 1981-09-18 00:00:00 Temperatura 16.2 del 17-09-1981 18:00, Mayor que la Máxima 16.0 18-09-1981 00:00 16.2 -- 16.0 2012-12-04 13:30:00
2 1981-10-01 00:00:00 Temperatura 14.0 del 30-09-1981 18:00, Mayor que la Máxima 13.4 01-10-1981 00:00 14.0 -- 13.4 2012-12-04 13:30:00
2 1981-10-21 00:00:00 Temperatura 15.2 del 20-10-1981 18:00, Mayor que la Máxima 15.0 21-10-1981 00:00 15.2 -- 15.0 2012-12-04 13:30:00
2 1981-12-05 00:00:00 Temperatura 17.6 del 04-12-1981 18:00, Mayor que la Máxima 17.4 05-12-1981 00:00 17.6 -- 17.4 2012-12-04 13:30:00
2 1982-03-08 00:00:00 Temperatura 21.1 del 07-03-1982 18:00, Mayor que la Máxima 20.4 08-03-1982 00:00 21.1 -- 20.4 2012-12-04 13:30:00
2 1982-04-03 00:00:00 Temperatura 18.8 del 02-04-1982 18:00, Mayor que la Máxima 18.2 03-04-1982 00:00 18.8 -- 18.2 2012-12-04 13:30:00
2 1982-09-09 00:00:00 Temperatura 15.8 del 08-09-1982 18:00, Mayor que la Máxima 15.5 09-09-1982 00:00 15.8 -- 15.5 2012-12-04 13:30:00
2 1982-09-20 00:00:00 Temperatura 15.4 del 19-09-1982 18:00, Mayor que la Máxima 15.3 20-09-1982 00:00 15.4 -- 15.3 2012-12-04 13:30:00
2 1982-12-08 00:00:00 Temperatura 19.8 del 07-12-1982 18:00, Mayor que la Máxima 18.6 08-12-1982 00:00 19.8 -- 18.6 2012-12-04 13:30:00
2 1982-12-29 00:00:00 Temperatura 21.0 del 28-12-1982 18:00, Mayor que la Máxima 20.8 29-12-1982 00:00 21.0 -- 20.8 2012-12-04 13:30:00
2 1983-05-11 00:00:00 Temperatura 15.6 del 10-05-1983 18:00, Mayor que la Máxima 7.1 11-05-1983 00:00 15.6 -- 7.1 2012-12-04 13:31:00
2 1983-06-06 00:00:00 Temperatura 17.8 del 06-06-1983 00:00, Mayor que la Máxima 16.7 06-06-1983 00:00 17.8 -- 16.7 2012-12-04 13:31:00
2 1983-08-28 00:00:00 Temperatura 15.2 del 27-08-1983 18:00, Mayor que la Máxima 15.1 28-08-1983 00:00 15.2 -- 15.1 2012-12-04 13:31:00
2 1983-09-24 00:00:00 Temperatura 16.3 del 23-09-1983 18:00, Mayor que la Máxima 16.2 24-09-1983 00:00 16.3 -- 16.2 2012-12-04 13:31:00
2 1983-12-16 00:00:00 Temperatura 19.4 del 15-12-1983 18:00, Mayor que la Máxima 19.0 16-12-1983 00:00 19.4 -- 19.0 2012-12-04 13:31:00
2 1984-01-08 00:00:00 Temperatura 21.6 del 07-01-1984 18:00, Mayor que la Máxima 21.1 08-01-1984 00:00 21.6 -- 21.1 2012-12-04 13:31:00
2 1984-03-23 00:00:00 Temperatura 21.3 del 22-03-1984 18:00, Mayor que la Máxima 21.2 23-03-1984 00:00 21.3 -- 21.2 2012-12-04 13:31:00
2 1984-04-28 00:00:00 Temperatura 15.2 del 27-04-1984 18:00, Mayor que la Máxima 13.6 28-04-1984 00:00 15.2 -- 13.6 2012-12-04 13:31:00
2 1984-07-20 00:00:00 Temperatura 16.1 del 19-07-1984 18:00, Mayor que la Máxima 16.0 20-07-1984 00:00 16.1 -- 16.0 2012-12-04 13:31:00
2 1984-07-23 00:00:00 Temperatura 14.0 del 22-07-1984 18:00, Mayor que la Máxima 13.9 23-07-1984 00:00 14.0 -- 13.9 2012-12-04 13:31:00
2 1984-08-15 00:00:00 Temperatura 15.8 del 14-08-1984 18:00, Mayor que la Máxima 15.2 15-08-1984 00:00 15.8 -- 15.2 2012-12-04 13:31:00
2 1984-08-23 00:00:00 Temperatura 14.4 del 23-08-1984 00:00, Mayor que la Máxima 14.2 23-08-1984 00:00 14.4 -- 14.2 2012-12-04 13:31:00
2 1985-01-04 00:00:00 Temperatura 19.6 del 03-01-1985 18:00, Mayor que la Máxima 19.0 04-01-1985 00:00 19.6 -- 19.0 2012-12-04 13:31:00
2 1985-07-15 00:00:00 Temperatura 14.8 del 14-07-1985 18:00, Mayor que la Máxima 14.4 15-07-1985 00:00 14.8 -- 14.4 2012-12-04 13:31:00
2 1985-07-19 00:00:00 Temperatura 15.3 del 18-07-1985 18:00, Mayor que la Máxima 14.2 19-07-1985 00:00 15.3 -- 14.2 2012-12-04 13:31:00
2 1985-11-23 00:00:00 Temperatura 18.0 del 22-11-1985 18:00, Mayor que la Máxima 17.6 23-11-1985 00:00 18.0 -- 17.6 2012-12-04 13:31:00
2 1985-12-15 00:00:00 Temperatura 18.4 del 14-12-1985 18:00, Mayor que la Máxima 18.0 15-12-1985 00:00 18.4 -- 18.0 2012-12-04 13:31:00
2 1985-12-23 00:00:00 Temperatura 21.4 del 22-12-1985 18:00, Mayor que la Máxima 20.8 23-12-1985 00:00 21.4 -- 20.8 2012-12-04 13:31:00
2 1986-04-30 00:00:00 Temperatura 17.2 del 29-04-1986 18:00, Mayor que la Máxima 17.0 30-04-1986 00:00 17.2 -- 17.0 2012-12-04 13:32:00
2 1986-06-14 00:00:00 Temperatura 15.3 del 13-06-1986 18:00, Mayor que la Máxima 15.1 14-06-1986 00:00 15.3 -- 15.1 2012-12-04 13:32:00
2 1986-12-27 00:00:00 Temperatura 20.7 del 26-12-1986 18:00, Mayor que la Máxima 20.6 27-12-1986 00:00 20.7 -- 20.6 2012-12-04 13:32:00
2 1987-01-17 00:00:00 Temperatura 19.6 del 16-01-1987 18:00, Mayor que la Máxima 19.4 17-01-1987 00:00 19.6 -- 19.4 2012-12-04 13:32:00
2 1987-08-09 00:00:00 Temperatura 15.2 del 08-08-1987 18:00, Mayor que la Máxima 15.1 09-08-1987 00:00 15.2 -- 15.1 2012-12-04 13:32:00
2 1988-10-29 00:00:00 Temperatura 15.6 del 28-10-1988 18:00, Mayor que la Máxima 6.4 29-10-1988 00:00 15.6 -- 6.4 2012-12-04 13:33:00
2 2020-12-16 00:00:00 Temperatura 15.7 del 15-12-2020 18:00, Mayor que la Máxima 15.2 16-12-2020 00:00 15.7 -- 15.2 2020-12-16 00:54:00
2 2021-02-05 00:00:00 Temperatura 18.6 del 04-02-2021 21:00, Mayor que la Máxima 18.5 05-02-2021 00:00 18.6 -- 18.5 2021-02-05 00:33:00
2 2021-05-31 00:00:00 Temperatura 13.9 del 30-05-2021 21:00, Mayor que la Máxima 13.3 31-05-2021 00:00 13.9 -- 13.3 2021-05-30 23:52:00
2 2022-02-05 00:00:00 Temperatura 19.7 del 04-02-2022 18:00, Mayor que la Máxima 19.4 05-02-2022 00:00 19.7 -- 19.4 2022-02-04 23:57:00
2 2023-01-27 00:00:00 Temperatura 18.8 del 26-01-2023 15:00, Mayor que la Máxima 18.6 27-01-2023 00:00 18.8 -- 18.6 2023-01-27 00:23:00
2 2023-09-25 00:00:00 Temperatura 15.7 del 24-09-2023 18:00, Mayor que la Máxima 15.6 25-09-2023 00:00 15.7 -- 15.6 2023-09-25 00:21:00
2 1969-01-22 12:00:00 Temperatura 17.8 del 22-01-1969 12:00, Menor que la Mínima 22.4 22-01-1969 12:00 17.8 -- 22.4 2012-12-04 13:33:00
2 1971-02-03 12:00:00 Temperatura 14.0 del 03-02-1971 12:00, Menor que la Mínima 15.0 03-02-1971 12:00 14.0 -- 15.0 2012-12-04 13:33:00
2 1971-03-04 12:00:00 Temperatura 13.4 del 04-03-1971 12:00, Menor que la Mínima 14.0 04-03-1971 12:00 13.4 -- 14.0 2012-12-04 13:33:00
2 1971-03-18 12:00:00 Temperatura 12.8 del 18-03-1971 12:00, Menor que la Mínima 13.0 18-03-1971 12:00 12.8 -- 13.0 2012-12-04 13:33:00
2 1971-04-14 12:00:00 Temperatura 11.8 del 14-04-1971 12:00, Menor que la Mínima 12.2 14-04-1971 12:00 11.8 -- 12.2 2012-12-04 13:33:00
2 1971-07-12 12:00:00 Temperatura 9.4 del 12-07-1971 12:00, Menor que la Mínima 9.8 12-07-1971 12:00 9.4 -- 9.8 2012-12-04 13:33:00
2 1971-10-22 12:00:00 Temperatura 11.8 del 22-10-1971 12:00, Menor que la Mínima 12.0 22-10-1971 12:00 11.8 -- 12.0 2012-12-04 13:33:00
2 1971-12-16 12:00:00 Temperatura 13.6 del 16-12-1971 12:00, Menor que la Mínima 13.9 16-12-1971 12:00 13.6 -- 13.9 2012-12-04 13:33:00
2 1972-02-23 12:00:00 Temperatura 15.0 del 23-02-1972 12:00, Menor que la Mínima 15.2 23-02-1972 12:00 15.0 -- 15.2 2012-12-04 13:33:00
2 1972-06-13 12:00:00 Temperatura 13.2 del 13-06-1972 12:00, Menor que la Mínima 14.6 13-06-1972 12:00 13.2 -- 14.6 2012-12-04 13:34:00
2 1973-03-14 12:00:00 Temperatura 14.2 del 14-03-1973 12:00, Menor que la Mínima 15.0 14-03-1973 12:00 14.2 -- 15.0 2012-12-04 13:34:00
2 1973-03-27 12:00:00 Temperatura 14.1 del 27-03-1973 12:00, Menor que la Mínima 15.4 27-03-1973 12:00 14.1 -- 15.4 2012-12-04 13:34:00
2 1973-04-05 12:00:00 Temperatura 14.0 del 05-04-1973 06:00, Menor que la Mínima 15.0 05-04-1973 12:00 14.0 -- 15.0 2012-12-04 13:34:00
2 1973-04-19 12:00:00 Temperatura 13.8 del 19-04-1973 06:00, Menor que la Mínima 14.6 19-04-1973 12:00 13.8 -- 14.6 2012-12-04 13:34:00
2 1973-05-04 12:00:00 Temperatura 13.4 del 04-05-1973 06:00, Menor que la Mínima 13.5 04-05-1973 12:00 13.4 -- 13.5 2012-12-04 13:34:00
2 1973-07-03 12:00:00 Temperatura 9.4 del 03-07-1973 12:00, Menor que la Mínima 9.8 03-07-1973 12:00 9.4 -- 9.8 2012-12-04 13:34:00
2 1973-07-24 12:00:00 Temperatura 8.8 del 24-07-1973 12:00, Menor que la Mínima 10.0 24-07-1973 12:00 8.8 -- 10.0 2012-12-04 13:34:00
2 1973-07-26 12:00:00 Temperatura 10.2 del 26-07-1973 06:00, Menor que la Mínima 10.4 26-07-1973 12:00 10.2 -- 10.4 2012-12-04 13:34:00
2 1973-09-14 12:00:00 Temperatura 10.0 del 14-09-1973 06:00, Menor que la Mínima 10.2 14-09-1973 12:00 10.0 -- 10.2 2012-12-04 13:34:00
2 1973-09-17 12:00:00 Temperatura 10.2 del 17-09-1973 06:00, Menor que la Mínima 10.6 17-09-1973 12:00 10.2 -- 10.6 2012-12-04 13:34:00
2 1973-09-20 12:00:00 Temperatura 9.8 del 20-09-1973 06:00, Menor que la Mínima 10.0 20-09-1973 12:00 9.8 -- 10.0 2012-12-04 13:34:00
2 1973-10-04 12:00:00 Temperatura 11.6 del 04-10-1973 06:00, Menor que la Mínima 12.0 04-10-1973 12:00 11.6 -- 12.0 2012-12-04 13:34:00
2 1973-10-07 12:00:00 Temperatura 11.9 del 07-10-1973 06:00, Menor que la Mínima 12.0 07-10-1973 12:00 11.9 -- 12.0 2012-12-04 13:34:00
2 1973-10-21 12:00:00 Temperatura 12.6 del 21-10-1973 06:00, Menor que la Mínima 13.0 21-10-1973 12:00 12.6 -- 13.0 2012-12-04 13:34:00
2 1973-10-26 12:00:00 Temperatura 11.4 del 26-10-1973 06:00, Menor que la Mínima 12.0 26-10-1973 12:00 11.4 -- 12.0 2012-12-04 13:34:00
2 1973-11-11 12:00:00 Temperatura 12.8 del 11-11-1973 06:00, Menor que la Mínima 13.4 11-11-1973 12:00 12.8 -- 13.4 2012-12-04 13:34:00
2 1973-11-21 12:00:00 Temperatura 13.2 del 21-11-1973 06:00, Menor que la Mínima 13.5 21-11-1973 12:00 13.2 -- 13.5 2012-12-04 13:34:00
2 1973-12-29 12:00:00 Temperatura 14.2 del 29-12-1973 06:00, Menor que la Mínima 15.0 29-12-1973 12:00 14.2 -- 15.0 2012-12-04 13:34:00
2 1974-02-12 12:00:00 Temperatura 15.4 del 12-02-1974 12:00, Menor que la Mínima 15.5 12-02-1974 12:00 15.4 -- 15.5 2012-12-04 13:34:00
2 1974-02-16 12:00:00 Temperatura 14.8 del 16-02-1974 06:00, Menor que la Mínima 15.0 16-02-1974 12:00 14.8 -- 15.0 2012-12-04 13:34:00
2 1974-03-03 12:00:00 Temperatura 14.2 del 03-03-1974 12:00, Menor que la Mínima 15.0 03-03-1974 12:00 14.2 -- 15.0 2012-12-04 13:34:00
2 1974-04-23 12:00:00 Temperatura 11.6 del 23-04-1974 12:00, Menor que la Mínima 12.0 23-04-1974 12:00 11.6 -- 12.0 2012-12-04 13:34:00
2 1974-05-15 12:00:00 Temperatura 12.8 del 15-05-1974 06:00, Menor que la Mínima 13.0 15-05-1974 12:00 12.8 -- 13.0 2012-12-04 13:34:00
2 1974-06-30 12:00:00 Temperatura 12.6 del 30-06-1974 06:00, Menor que la Mínima 13.2 30-06-1974 12:00 12.6 -- 13.2 2012-12-04 13:34:00
2 1974-08-05 12:00:00 Temperatura 10.4 del 05-08-1974 06:00, Menor que la Mínima 16.6 05-08-1974 12:00 10.4 -- 16.6 2012-12-04 13:34:00
2 1974-08-22 12:00:00 Temperatura 10.4 del 22-08-1974 06:00, Menor que la Mínima 11.0 22-08-1974 12:00 10.4 -- 11.0 2012-12-04 13:34:00
2 1974-09-09 12:00:00 Temperatura 10.6 del 09-09-1974 06:00, Menor que la Mínima 10.8 09-09-1974 12:00 10.6 -- 10.8 2012-12-04 13:34:00
2 1974-09-30 12:00:00 Temperatura 11.6 del 30-09-1974 06:00, Menor que la Mínima 11.8 30-09-1974 12:00 11.6 -- 11.8 2012-12-04 13:34:00
2 1974-10-02 12:00:00 Temperatura 11.8 del 02-10-1974 06:00, Menor que la Mínima 12.0 02-10-1974 12:00 11.8 -- 12.0 2012-12-04 13:34:00
2 1974-10-03 12:00:00 Temperatura 11.6 del 03-10-1974 06:00, Menor que la Mínima 12.0 03-10-1974 12:00 11.6 -- 12.0 2012-12-04 13:34:00
2 1974-10-06 12:00:00 Temperatura 11.6 del 06-10-1974 06:00, Menor que la Mínima 12.0 06-10-1974 12:00 11.6 -- 12.0 2012-12-04 13:34:00
2 1974-10-11 12:00:00 Temperatura 11.4 del 11-10-1974 06:00, Menor que la Mínima 11.7 11-10-1974 12:00 11.4 -- 11.7 2012-12-04 13:34:00
2 1974-10-17 12:00:00 Temperatura 12.0 del 17-10-1974 06:00, Menor que la Mínima 12.6 17-10-1974 12:00 12.0 -- 12.6 2012-12-04 13:34:00
2 1974-11-16 12:00:00 Temperatura 12.6 del 16-11-1974 06:00, Menor que la Mínima 13.0 16-11-1974 12:00 12.6 -- 13.0 2012-12-04 13:34:00
2 1974-12-07 12:00:00 Temperatura 13.4 del 07-12-1974 06:00, Menor que la Mínima 14.0 07-12-1974 12:00 13.4 -- 14.0 2012-12-04 13:34:00
2 1974-12-10 12:00:00 Temperatura 13.6 del 10-12-1974 06:00, Menor que la Mínima 14.4 10-12-1974 12:00 13.6 -- 14.4 2012-12-04 13:34:00
2 1974-12-13 12:00:00 Temperatura 14.6 del 13-12-1974 06:00, Menor que la Mínima 15.6 13-12-1974 12:00 14.6 -- 15.6 2012-12-04 13:34:00
2 1974-12-19 12:00:00 Temperatura 14.6 del 19-12-1974 06:00, Menor que la Mínima 14.8 19-12-1974 12:00 14.6 -- 14.8 2012-12-04 13:34:00
2 1974-12-31 12:00:00 Temperatura 14.7 del 31-12-1974 06:00, Menor que la Mínima 15.0 31-12-1974 12:00 14.7 -- 15.0 2012-12-04 13:34:00
2 1975-01-01 12:00:00 Temperatura 15.0 del 01-01-1975 06:00, Menor que la Mínima 15.1 01-01-1975 12:00 15.0 -- 15.1 2014-08-04 20:15:00
2 1975-01-01 12:00:00 Temperatura 15.0 del 01-01-1975 06:00, Menor que la Mínima 15.1 01-01-1975 12:00 15.0 -- 15.1 2014-08-04 20:15:00
2 1975-01-06 12:00:00 Temperatura 14.7 del 06-01-1975 06:00, Menor que la Mínima 15.0 06-01-1975 12:00 14.7 -- 15.0 2012-12-04 13:34:00
2 1975-01-20 12:00:00 Temperatura 15.4 del 20-01-1975 06:00, Menor que la Mínima 15.6 20-01-1975 12:00 15.4 -- 15.6 2012-12-04 13:34:00
2 1975-04-27 12:00:00 Temperatura 13.5 del 27-04-1975 06:00, Menor que la Mínima 14.0 27-04-1975 12:00 13.5 -- 14.0 2012-12-04 13:35:00
2 1975-05-06 12:00:00 Temperatura 12.4 del 06-05-1975 12:00, Menor que la Mínima 13.0 06-05-1975 12:00 12.4 -- 13.0 2014-08-04 20:18:00
2 1975-05-17 12:00:00 Temperatura 10.4 del 17-05-1975 06:00, Menor que la Mínima 11.0 17-05-1975 12:00 10.4 -- 11.0 2014-08-04 20:18:00
2 1975-05-22 12:00:00 Temperatura 12.0 del 22-05-1975 12:00, Menor que la Mínima 12.2 22-05-1975 12:00 12.0 -- 12.2 2014-08-04 20:18:00
2 1975-05-23 12:00:00 Temperatura 12.6 del 23-05-1975 12:00, Menor que la Mínima 13.2 23-05-1975 12:00 12.6 -- 13.2 2014-08-04 20:18:00
2 1975-08-07 12:00:00 Temperatura 9.6 del 07-08-1975 06:00, Menor que la Mínima 9.9 07-08-1975 12:00 9.6 -- 9.9 2012-12-04 13:35:00
2 1975-08-25 12:00:00 Temperatura 8.0 del 25-08-1975 12:00, Menor que la Mínima 9.1 25-08-1975 12:00 8.0 -- 9.1 2014-08-04 20:22:00
2 1975-09-04 12:00:00 Temperatura 10.1 del 04-09-1975 06:00, Menor que la Mínima 10.4 04-09-1975 12:00 10.1 -- 10.4 2012-12-04 13:35:00
2 1975-09-21 12:00:00 Temperatura 11.4 del 21-09-1975 06:00, Menor que la Mínima 11.6 21-09-1975 12:00 11.4 -- 11.6 2012-12-04 13:35:00
2 1976-02-28 12:00:00 Temperatura 15.4 del 28-02-1976 06:00, Menor que la Mínima 15.7 28-02-1976 12:00 15.4 -- 15.7 2012-12-04 13:35:00
2 1976-03-08 12:00:00 Temperatura 14.4 del 08-03-1976 12:00, Menor que la Mínima 14.8 08-03-1976 12:00 14.4 -- 14.8 2012-12-04 13:35:00
2 1976-03-19 12:00:00 Temperatura 13.8 del 19-03-1976 06:00, Menor que la Mínima 14.0 19-03-1976 12:00 13.8 -- 14.0 2012-12-04 13:35:00
2 1976-04-19 12:00:00 Temperatura 11.0 del 19-04-1976 12:00, Menor que la Mínima 19.8 19-04-1976 12:00 11.0 -- 19.8 2012-12-04 13:35:00
2 1976-05-23 12:00:00 Temperatura 13.2 del 23-05-1976 06:00, Menor que la Mínima 13.4 23-05-1976 12:00 13.2 -- 13.4 2012-12-04 13:35:00
2 1976-09-17 12:00:00 Temperatura 12.4 del 17-09-1976 06:00, Menor que la Mínima 12.5 17-09-1976 12:00 12.4 -- 12.5 2012-12-04 13:35:00
2 1976-10-10 12:00:00 Temperatura 12.2 del 10-10-1976 06:00, Menor que la Mínima 12.4 10-10-1976 12:00 12.2 -- 12.4 2012-12-04 13:35:00
2 1976-11-01 12:00:00 Temperatura 13.8 del 01-11-1976 12:00, Menor que la Mínima 14.0 01-11-1976 12:00 13.8 -- 14.0 2012-12-04 13:35:00
2 1977-06-21 12:00:00 Temperatura 12.8 del 21-06-1977 12:00, Menor que la Mínima 16.0 21-06-1977 12:00 12.8 -- 16.0 2012-12-04 13:35:00
2 1978-05-25 12:00:00 Temperatura 9.6 del 25-05-1978 12:00, Menor que la Mínima 22.0 25-05-1978 12:00 9.6 -- 22.0 2012-12-04 13:36:00
2 1979-03-14 12:00:00 Temperatura 15.2 del 14-03-1979 06:00, Menor que la Mínima 15.3 14-03-1979 12:00 15.2 -- 15.3 2012-12-04 13:36:00
2 1979-03-19 12:00:00 Temperatura 16.4 del 19-03-1979 06:00, Menor que la Mínima 17.0 19-03-1979 12:00 16.4 -- 17.0 2012-12-04 13:36:00
2 1979-11-12 12:00:00 Temperatura 13.4 del 12-11-1979 06:00, Menor que la Mínima 13.6 12-11-1979 12:00 13.4 -- 13.6 2012-12-04 13:36:00
2 1982-08-10 12:00:00 Temperatura 10.4 del 10-08-1982 06:00, Menor que la Mínima 10.5 10-08-1982 12:00 10.4 -- 10.5 2012-12-04 13:37:00
2 1982-11-24 12:00:00 Temperatura 14.0 del 24-11-1982 06:00, Menor que la Mínima 14.5 24-11-1982 12:00 14.0 -- 14.5 2012-12-04 13:37:00
2 1983-01-19 12:00:00 Temperatura 18.0 del 19-01-1983 06:00, Menor que la Mínima 19.2 19-01-1983 12:00 18.0 -- 19.2 2012-12-04 13:37:00
2 1983-04-04 12:00:00 Temperatura 12.8 del 04-04-1983 12:00, Menor que la Mínima 14.0 04-04-1983 12:00 12.8 -- 14.0 2012-12-04 13:37:00
2 1983-04-07 12:00:00 Temperatura 14.8 del 07-04-1983 06:00, Menor que la Mínima 15.4 07-04-1983 12:00 14.8 -- 15.4 2012-12-04 13:37:00
2 1983-06-19 12:00:00 Temperatura 13.0 del 19-06-1983 06:00, Menor que la Mínima 13.2 19-06-1983 12:00 13.0 -- 13.2 2012-12-04 13:37:00
2 1983-07-09 12:00:00 Temperatura 8.6 del 09-07-1983 12:00, Menor que la Mínima 8.7 09-07-1983 12:00 8.6 -- 8.7 2012-12-04 13:38:00
2 1983-12-15 12:00:00 Temperatura 16.6 del 15-12-1983 06:00, Menor que la Mínima 16.8 15-12-1983 12:00 16.6 -- 16.8 2012-12-04 13:38:00
2 1983-12-19 12:00:00 Temperatura 16.3 del 19-12-1983 06:00, Menor que la Mínima 17.0 19-12-1983 12:00 16.3 -- 17.0 2012-12-04 13:38:00
2 1983-12-26 12:00:00 Temperatura 14.3 del 26-12-1983 12:00, Menor que la Mínima 16.4 26-12-1983 12:00 14.3 -- 16.4 2012-12-04 13:38:00
2 1984-11-10 12:00:00 Temperatura 13.5 del 10-11-1984 06:00, Menor que la Mínima 19.0 10-11-1984 12:00 13.5 -- 19.0 2012-12-04 13:38:00
2 1984-11-29 12:00:00 Temperatura 14.5 del 29-11-1984 06:00, Menor que la Mínima 14.8 29-11-1984 12:00 14.5 -- 14.8 2012-12-04 13:38:00
2 1985-01-19 12:00:00 Temperatura 14.0 del 19-01-1985 12:00, Menor que la Mínima 15.9 19-01-1985 12:00 14.0 -- 15.9 2012-12-04 13:38:00
2 1985-06-10 12:00:00 Temperatura 10.1 del 10-06-1985 06:00, Menor que la Mínima 10.8 10-06-1985 12:00 10.1 -- 10.8 2012-12-04 13:38:00
2 1985-11-17 12:00:00 Temperatura 13.8 del 17-11-1985 06:00, Menor que la Mínima 14.5 17-11-1985 12:00 13.8 -- 14.5 2012-12-04 13:38:00
2 1985-12-02 12:00:00 Temperatura 15.2 del 02-12-1985 06:00, Menor que la Mínima 15.3 02-12-1985 12:00 15.2 -- 15.3 2012-12-04 13:38:00
2 1985-12-03 12:00:00 Temperatura 14.7 del 03-12-1985 06:00, Menor que la Mínima 15.4 03-12-1985 12:00 14.7 -- 15.4 2012-12-04 13:38:00
2 1985-12-21 12:00:00 Temperatura 13.7 del 21-12-1985 06:00, Menor que la Mínima 15.4 21-12-1985 12:00 13.7 -- 15.4 2012-12-04 13:38:00
2 1986-01-23 12:00:00 Temperatura 15.6 del 23-01-1986 06:00, Menor que la Mínima 16.0 23-01-1986 12:00 15.6 -- 16.0 2012-12-04 13:38:00
2 1987-04-28 12:00:00 Temperatura 14.6 del 28-04-1987 06:00, Menor que la Mínima 14.8 28-04-1987 12:00 14.6 -- 14.8 2012-12-04 13:39:00
2 1987-06-27 12:00:00 Temperatura 12.4 del 27-06-1987 06:00, Menor que la Mínima 13.5 27-06-1987 12:00 12.4 -- 13.5 2012-12-04 13:39:00
2 1987-07-10 12:00:00 Temperatura 11.8 del 10-07-1987 06:00, Menor que la Mínima 12.4 10-07-1987 12:00 11.8 -- 12.4 2012-12-04 13:39:00
2 1987-08-23 12:00:00 Temperatura 13.5 del 23-08-1987 06:00, Menor que la Mínima 13.6 23-08-1987 12:00 13.5 -- 13.6 2012-12-04 13:39:00
2 1987-09-21 12:00:00 Temperatura 12.4 del 21-09-1987 06:00, Menor que la Mínima 13.8 21-09-1987 12:00 12.4 -- 13.8 2012-12-04 13:39:00
2 1987-11-14 12:00:00 Temperatura 13.4 del 14-11-1987 06:00, Menor que la Mínima 14.0 14-11-1987 12:00 13.4 -- 14.0 2012-12-04 13:39:00
2 1988-07-18 12:00:00 Temperatura 8.2 del 18-07-1988 06:00, Menor que la Mínima 8.6 18-07-1988 12:00 8.2 -- 8.6 2012-12-04 13:39:00
2 1988-09-05 12:00:00 Temperatura 9.5 del 05-09-1988 12:00, Menor que la Mínima 10.6 05-09-1988 12:00 9.5 -- 10.6 2012-12-04 13:39:00
2 2018-10-04 12:00:00 Temperatura 12.4 del 04-10-2018 06:00, Menor que la Mínima 12.8 04-10-2018 12:00 12.4 -- 12.8 2018-10-05 13:26:00
2 2020-12-16 12:00:00 Temperatura 14.3 del 16-12-2020 09:00, Menor que la Mínima 14.4 16-12-2020 12:00 14.3 -- 14.4 2020-12-16 12:01:00
2 2020-12-26 12:00:00 Temperatura 15.3 del 26-12-2020 09:00, Menor que la Mínima 16.1 26-12-2020 12:00 15.3 -- 16.1 2020-12-26 11:49:00
2 2021-01-06 12:00:00 Temperatura 15.6 del 06-01-2021 09:00, Menor que la Mínima 15.9 06-01-2021 12:00 15.6 -- 15.9 2021-01-06 12:33:00
2 2021-08-24 12:00:00 Temperatura 4.2 del 24-08-2021 03:00, Menor que la Mínima 11.5 24-08-2021 12:00 4.2 -- 11.5 2021-08-24 12:22:00
2 2022-07-20 12:00:00 Temperatura 5.6 del 20-07-2022 09:00, Menor que la Mínima 11.6 20-07-2022 12:00 5.6 -- 11.6 2022-07-20 12:41:00
2 2023-01-24 12:00:00 Temperatura 17.0 del 24-01-2023 03:00, Menor que la Mínima 17.8 24-01-2023 12:00 17.0 -- 17.8 2023-01-24 11:39:00
2 2023-01-28 12:00:00 Temperatura 14.6 del 28-01-2023 09:00, Menor que la Mínima 15.7 28-01-2023 12:00 14.6 -- 15.7 2023-01-28 11:51:00
2 2023-02-16 12:00:00 Temperatura 16.8 del 16-02-2023 03:00, Menor que la Mínima 16.9 16-02-2023 12:00 16.8 -- 16.9 2023-02-16 11:33:00
2 2023-09-03 12:00:00 Temperatura 13.2 del 03-09-2023 03:00, Menor que la Mínima 13.3 03-09-2023 12:00 13.2 -- 13.3 2023-09-03 11:48:00
Errores del Nivel 187
Informe generado el 23-02-2024 09:56
Requerimiento: RE6001